Tracking 23726 objects as of 16-Oct-2021
HD Live streaming from Space Station
objects crossing your sky now

USA 40 R/B DEB

Track USA 40 R/B DEB now!
10-day predictions


NORAD ID: 23379
Int'l Code: 1989-061BB
Perigee: 532.2 km
Apogee: 6,906.9 km
Inclination: 57.0 °
Period: 168.1 minutes
Semi major axis: 10090 km
RCS: Unknown
Launch date: August 8, 1989
Source: United States (US)
Launch site: AIR FORCE EASTERN TEST RANGE (AFETR)

Note: This is SATELLITE DEBRIS
aabbcc
Your satellite tracking list
Your tracking list is empty




NASA's NSSDC Master Catalog

Two Line Element Set (TLE):
1 23379U 89061BB  21264.37845306 -.00000817  00000-0 -68233-3 0  9992
2 23379  56.9910 171.8515 3158787 253.3528  70.1458  8.56508295 81441
Source of the keplerian elements: AFSPC